HIMAWARI 8

Last updated on Dec. 11, 2016, 12:16 a.m. UTC

1 40267U 14060A   16345.38859158 -.00000273  00000-0  00000+0 0  9998
2 40267   0.0113 328.0530 0001049 284.5968 107.3388  1.00271308  8014
UTC
Height (km)
Latitude
Longitude
Inclination
Orbital Period
UTC large
Height (km)
Speed (km/s)
/
Latitude / Longitude
Inclination (degrees)
Orbital Period (minutes)
Azimuth
Elevation
Range (km)
Doppler Factor
iOS Compass Heading
iOS Angle

Next 30 passes for location: Hong Kong

Rise time Rise Azimuth (degrees) Set time Set Azimuth (degrees) Duration Max altitude (degrees)

No matching passes for this satellites